Weather History for Bentonville, AR

Change the Weather History Date:

Tuesday, November 13, 2012

  Actual Average Record
Temperature  
Mean Temperature 40 °F -  
Max Temperature 53 °F 57 °F 82 °F (1955)
Min Temperature 26 °F 34 °F 8 °F (1986)
Degree Days  
Heating Degree Days 26    
Moisture  
Dew Point 24 °F    
Average Humidity 57    
Maximum Humidity 86    
Minimum Humidity 26    
Precipitation  
Precipitation 0.00 in - - ()
Sea Level Pressure  
Sea Level Pressure 30.42 in    
Wind  
Wind Speed 3 mph (South)    
Max Wind Speed 6 mph    
Max Gust Speed -    
Visibility 10 miles    
Events      
Averages and records for this station are not official NWS values.
T = Trace of Precipitation, MM = Missing Value Source: NWS Daily Summary

Daily Weather History Graph

Daily Weather History Graph

Search for Another Location

Airport:

Trip Planner

Search our weather history database for the weather conditions in past years. The results will help you decide how hot, cold, wet, or windy it might be!

Date:

Astronomy

Nov. 13, 2012 Rise Set
Actual Time 6:52 AM CST 5:09 PM CST
Civil Twilight 6:25 AM CST 5:36 PM CST
Nautical Twilight 5:54 AM CST 6:07 PM CST
Astronomical Twilight 5:23 AM CST 6:38 PM CST
Moon 6:31 AM CST (11/13) 5:04 PM CST (11/13)
Length of Visible Light 11h 11m
Length of Day
10h 16m
Waning Crescent, 0% of the Moon is Illuminated
Nov 13
Waning Crescent
Nov 13
New
Nov 20
First Quarter
Nov 28
Full
Dec 6
Last Quarter

Hourly Weather History & Observations

Time (CST) Temp. Windchill Dew Point Humidity Pressure Visibility Wind Dir Wind Speed Gust Speed Precip Events Conditions
12:15 AM 30.2 °F 25.4 °F 23.0 °F 75% 30.46 in 10.0 mi SSW 4.6 mph - N/A   Clear
12:35 AM 30.2 °F 26.7 °F 23.0 °F 75% 30.46 in 10.0 mi SSW 3.5 mph - N/A   Clear
1:15 AM 30.2 °F 26.7 °F 23.0 °F 75% 30.46 in 10.0 mi SSW 3.5 mph - N/A   Clear
1:35 AM 30.2 °F 26.7 °F 23.0 °F 75% 30.46 in 10.0 mi South 3.5 mph - N/A   Clear
1:55 AM 28.4 °F 24.6 °F 21.2 °F 74% 30.46 in 10.0 mi South 3.5 mph - N/A   Clear
2:35 AM 28.4 °F 24.6 °F 23.0 °F 80% 30.46 in 10.0 mi South 3.5 mph - N/A   Clear
2:55 AM 28.4 °F 24.6 °F 21.2 °F 74% 30.46 in 10.0 mi SSE 3.5 mph - N/A   Clear
3:16 AM 28.4 °F 23.3 °F 21.2 °F 74% 30.46 in 10.0 mi South 4.6 mph - N/A   Clear
3:35 AM 28.4 °F 23.3 °F 23.0 °F 80% 30.46 in 10.0 mi South 4.6 mph - N/A   Clear
3:55 AM 26.6 °F - 21.2 °F 80% 30.45 in 10.0 mi Calm Calm - N/A   Clear
4:16 AM 28.4 °F - 23.0 °F 80% 30.45 in 10.0 mi Calm Calm - N/A   Clear
4:35 AM 26.6 °F 22.6 °F 23.0 °F 86% 30.45 in 10.0 mi South 3.5 mph - N/A   Clear
4:55 AM 26.6 °F - 21.2 °F 80% 30.45 in 10.0 mi Calm Calm - N/A   Clear
6:35 AM 26.6 °F - 21.2 °F 80% 30.46 in 10.0 mi Calm Calm - N/A   Clear
6:55 AM 26.6 °F 22.6 °F 21.2 °F 80% 30.47 in 10.0 mi SSE 3.5 mph - N/A   Clear
7:15 AM 26.6 °F 22.6 °F 21.2 °F 80% 30.47 in 10.0 mi SE 3.5 mph - N/A   Clear
7:36 AM 28.4 °F 24.6 °F 23.0 °F 80% 30.47 in 10.0 mi SSE 3.5 mph - N/A   Clear
7:55 AM 30.2 °F - 26.6 °F 86% 30.48 in 10.0 mi Calm Calm - N/A   Clear
8:15 AM 33.8 °F - 26.6 °F 75% 30.48 in 10.0 mi Calm Calm - N/A   Clear
8:35 AM 35.6 °F 32.8 °F 26.6 °F 70% 30.49 in 10.0 mi SSE 3.5 mph - N/A   Clear
8:55 AM 39.2 °F 37.0 °F 28.4 °F 65% 30.49 in 10.0 mi South 3.5 mph - N/A   Clear
9:15 AM 41.0 °F 39.0 °F 28.4 °F 61% 30.49 in 10.0 mi South 3.5 mph - N/A   Clear
9:35 AM 42.8 °F 40.1 °F 28.4 °F 57% 30.49 in 10.0 mi South 4.6 mph - N/A   Clear
9:55 AM 44.6 °F 43.1 °F 28.4 °F 53% 30.50 in 10.0 mi SW 3.5 mph - N/A   Clear
10:15 AM 46.4 °F 45.2 °F 26.6 °F 46% 30.50 in 10.0 mi SW 3.5 mph - N/A   Clear
10:35 AM 48.2 °F - 28.4 °F 46% 30.49 in 10.0 mi SSW 3.5 mph - N/A   Clear
10:55 AM 48.2 °F - 26.6 °F 43% 30.48 in 10.0 mi SSW 3.5 mph - N/A   Clear
11:15 AM 50.0 °F - 24.8 °F 37% 30.47 in 10.0 mi Calm Calm - N/A   Clear
11:55 AM 51.8 °F - 24.8 °F 35% 30.45 in 10.0 mi SSW 4.6 mph - N/A   Clear
1:15 PM 53.6 °F - 21.2 °F 28% 30.40 in 10.0 mi SSW 3.5 mph - N/A   Clear
1:35 PM 53.6 °F - 21.2 °F 28% 30.40 in 10.0 mi SSE 3.5 mph - N/A   Clear
1:55 PM 53.6 °F - 21.2 °F 28% 30.38 in 10.0 mi Calm Calm - N/A   Clear
2:15 PM 53.6 °F - 21.2 °F 28% 30.38 in 10.0 mi SW 4.6 mph - N/A   Clear
2:55 PM 53.6 °F - 21.2 °F 28% 30.37 in 10.0 mi SSW 4.6 mph - N/A   Clear
3:15 PM 53.6 °F - 21.2 °F 28% 30.36 in 10.0 mi Calm Calm - N/A   Clear
3:35 PM 53.6 °F - 21.2 °F 28% 30.35 in 10.0 mi Calm Calm - N/A   Clear
3:55 PM 53.6 °F - 21.2 °F 28% 30.35 in 10.0 mi SSE 3.5 mph - N/A   Clear
4:15 PM 53.6 °F - 19.4 °F 26% 30.35 in 10.0 mi Calm Calm - N/A   Clear
4:55 PM 51.8 °F - 21.2 °F 30% 30.34 in 10.0 mi SSE 3.5 mph - N/A   Clear
5:15 PM 48.2 °F - 21.2 °F 34% 30.33 in 10.0 mi Calm Calm - N/A   Clear
5:35 PM 46.4 °F - 19.4 °F 34% 30.33 in 10.0 mi Calm Calm - N/A   Clear
5:56 PM 44.6 °F - 19.4 °F 37% 30.34 in 10.0 mi Calm Calm - N/A   Clear
6:15 PM 42.8 °F - 19.4 °F 39% 30.35 in 10.0 mi Calm Calm - N/A   Clear
6:35 PM 42.8 °F - 28.4 °F 57% 30.36 in 10.0 mi Calm Calm - N/A   Clear
7:55 PM 41.0 °F 39.0 °F 24.8 °F 53% 30.39 in 10.0 mi SE 3.5 mph - N/A   Clear
8:15 PM 39.2 °F - 26.6 °F 61% 30.40 in 10.0 mi Calm Calm - N/A   Clear
8:35 PM 39.2 °F - 26.6 °F 61% 30.40 in 10.0 mi Calm Calm - N/A   Clear
8:56 PM 42.8 °F 41.1 °F 24.8 °F 49% 30.40 in 10.0 mi SE 3.5 mph - N/A   Clear
9:15 PM 42.8 °F - 26.6 °F 53% 30.40 in 10.0 mi Calm Calm - N/A   Clear
9:35 PM 42.8 °F - 24.8 °F 49% 30.39 in 10.0 mi Calm Calm - N/A   Clear
9:55 PM 39.2 °F - 28.4 °F 65% 30.40 in 10.0 mi Calm Calm - N/A   Clear
10:15 PM 41.0 °F - 26.6 °F 57% 30.40 in 10.0 mi Calm Calm - N/A   Clear
10:36 PM 42.8 °F 40.1 °F 26.6 °F 53% 30.39 in 10.0 mi ESE 4.6 mph - N/A   Clear
10:55 PM 39.2 °F 35.9 °F 26.6 °F 61% 30.38 in 10.0 mi ESE 4.6 mph - N/A   Clear
11:15 PM 39.2 °F 35.0 °F 26.6 °F 61% 30.38 in 10.0 mi SE 5.8 mph - N/A   Clear
11:55 PM 39.2 °F - 28.4 °F 65% 30.39 in 10.0 mi Calm Calm - N/A   Clear